Flag for Canada Weather past 2 weeks in Richmond, British Columbia, Canada

Now
54 °F

Light rain. Mostly cloudy.


Feels Like: 49 °F
Forecast: 50 / 54 °F
Wind: 14 mph from East

Location: Vancouver International Air-Port

Current Time: Oct 22, 2014 at 8:52:43 PM

Latest Report: Oct 22, 2014 at 8:00 PM


Visibility: 8 mi

Pressure: 29.48 "Hg

Humidity: 94%

Dew point: 52 °F

Location of RichmondLocation

Historic Weather in Richmond — Graph

°F

Richmond temperature yesterday

Maximum temperature yesterday: 59 °F (at 11:00 PM)
Minimum temperature yesterday: 54 °F (at 2:46 AM)
Average temperature yesterday: 56 °F

Past Weeks' High & Low Weather Summary

 TemperatureHumidityPressure
High68 °F (Oct 19, 12:00 PM)100% (Oct 7, 9:00 PM)30.22 "Hg (Oct 7, 9:00 PM)
Low48 °F (Oct 12, 6:00 AM)63% (Oct 16, 4:00 PM)29.48 "Hg (Oct 22, 7:48 PM)
Average56 °F89%29.84 "Hg
* Reported Oct 7 7:00 PM — Oct 22 7:48 PM, Richmond, Weather by CustomWeather, © 2014

Note: Actual official high and low records may vary slightly from our data, if they occured in-between our weather recording intervals... More about our weather records

Advertising

Richmond weather history for previous 24 hours

 ConditionsComfort  
Time TempWeatherWind HumidityBarometerVisibility
7:48 PM
Oct 22
54 °FLight rain. Fog.10 mph94%29.48 "Hg6 mi
7:00 PM54 °FRain. Mostly cloudy.12 mph94%29.52 "Hg8 mi
6:00 PM55 °FLight rain. Mostly cloudy.17 mph94%29.54 "Hg12 mi
5:50 PM55 °FLight rain. Mostly cloudy.15 mph94%29.54 "Hg15 mi
5:00 PM57 °FLight rain. Mostly cloudy.12 mph88%29.56 "Hg15 mi
4:00 PM57 °FMore clouds than sun.14 mph88%29.60 "Hg15 mi
3:48 PM57 °FCloudy.13 mph88%29.60 "Hg15 mi
3:00 PM57 °FCloudy.10 mph88%29.63 "Hg15 mi
2:00 PM55 °FCloudy.12 mph94%29.65 "Hg15 mi
1:00 PM57 °FPartly sunny.10 mph88%29.66 "Hg15 mi
12:00 PM57 °FPartly sunny.7 mph88%29.67 "Hg15 mi
11:00 AM55 °FBroken clouds.12 mph94%29.67 "Hg15 mi
10:00 AM55 °FPartly sunny.15 mph94%29.66 "Hg15 mi
9:00 AM54 °FScattered clouds.13 mph94%29.65 "Hg15 mi
8:00 AM54 °FPassing clouds.16 mph94%29.63 "Hg15 mi
7:45 AM54 °FPassing clouds.14 mph94%29.63 "Hg15 mi
7:00 AM54 °FPartly cloudy.15 mph88%29.61 "Hg15 mi
6:00 AM54 °FPassing clouds.15 mph94%29.60 "Hg10 mi
5:00 AM54 °FLight rain. Overcast.20 mph94%29.56 "Hg8 mi
4:51 AM54 °FLight rain. Mostly cloudy.22 mph94%29.57 "Hg8 mi
4:00 AM54 °FOvercast.20 mph94%29.58 "Hg8 mi
3:00 AM54 °FRain. Mostly cloudy.23 mph88%29.57 "Hg8 mi
2:53 AM54 °FHeavy rain. Mostly cloudy.23 mph88%29.57 "Hg8 mi
2:00 AM55 °FSprinkles. Overcast.21 mph82%29.57 "Hg8 mi
1:00 AM57 °FSprinkles. Overcast.25 mph77%29.56 "Hg10 mi
12:00 AM59 °FOvercast.28 mph72%29.59 "Hg12 mi
11:00 PM
Oct 21
59 °FSprinkles. Mostly cloudy.26 mph72%29.63 "Hg10 mi
10:00 PM57 °FSprinkles. Mostly cloudy.17 mph77%29.67 "Hg10 mi
9:00 PM57 °FSprinkles. Overcast.21 mph77%29.69 "Hg10 mi
8:00 PM57 °FSprinkles. Mostly cloudy.22 mph77%29.72 "Hg10 mi
Weather by CustomWeather, © 2014

See weather overviewHow to use our weather pages